Location: Rounton
(54.4000°N, 1.3500°W)
Time: 08:58:06
(UTC+01:00)

deb Agena D - Pass Details

Date: 17 June 2023
Orbit: 996 x 1023 km, 100.1° (Epoch: 29 September)

Event Time Altitude Azimuth Distance (km) Brightness Sun altitude
Exits shadow 01:14:00 15° 167° (SSE) 2,418 ? -12.2°
Maximum altitude 01:19:18 77° 253° (WSW) 1,028 ? -12.2°
Drops below altitude 10° 01:25:33 10° 340° (NNW) 2,778 ? -12.1°
Sets 01:28:02 0° 342° (NNW) 3,731 ? -12.1°
